Flag for Australia Weather past 2 weeks in Cairns, Queensland, Australia

Now
81 °F

Passing clouds.


Feels Like: 82 °F
Forecast: 72 / 79 °F
Wind: 17 mph from Southeast

Location: Cairns Airport

Current Time: May 27, 2015 at 12:11:33 PM

Latest Report: May 27, 2015 at 11:30 AM


Visibility: N/A

Pressure: 30.04 "Hg

Humidity: 58%

Dew point: 64 °F

Location of CairnsLocation

Historic Weather in Cairns — Graph

°F

Cairns temperature yesterday

Maximum temperature yesterday: 81 °F (at 11:00 AM)
Minimum temperature yesterday: 70 °F (at 3:00 AM)
Average temperature yesterday: 74 °F

Past Weeks' High & Low Weather Summary

 TemperatureHumidityPressure
High86 °F (May 22, 12:30 PM)100% (May 22, 1:00 AM)30.18 "Hg (May 22, 1:00 AM)
Low63 °F (May 13, 5:30 AM)36% (May 23, 9:30 AM)29.92 "Hg (May 13, 2:00 PM)
Average74 °F72%30.04 "Hg
* Reported May 12 11:00 AM — May 27 11:00 AM, Cairns, Weather by CustomWeather, © 2015

Note: Actual official high and low records may vary slightly from our data, if they occured in-between our weather recording intervals... More about our weather records

Advertising

Cairns weather history for previous 24 hours

 ConditionsComfort  
Time TempWeatherWind HumidityBarometerVisibility
11:00 AM
Wed, May 27
81 °FScattered clouds.18 mph62%30.04 "HgN/A
10:30 AM81 °FScattered clouds.14 mph62%30.07 "HgN/A
10:00 AM79 °FScattered clouds.13 mph70%30.07 "HgN/A
9:30 AM77 °FScattered clouds.14 mph74%30.07 "HgN/A
9:00 AM75 °FScattered clouds.14 mph78%30.09 "HgN/A
8:30 AM73 °FScattered clouds.14 mph83%30.07 "HgN/A
8:00 AM73 °FScattered clouds.13 mph78%30.07 "HgN/A
7:30 AM72 °FPartly sunny.10 mph83%30.07 "HgN/A
7:00 AM72 °FPartly sunny.10 mph83%30.07 "HgN/A
6:30 AM72 °FPassing clouds.12 mph83%30.07 "HgN/A
6:00 AM70 °FPassing clouds.12 mph88%30.04 "HgN/A
5:30 AM70 °FPartly cloudy.10 mph88%30.04 "HgN/A
5:00 AM72 °FPassing clouds.13 mph83%30.04 "HgN/A
4:30 AM70 °FPassing clouds.10 mph88%30.04 "HgN/A
4:00 AM72 °FScattered showers. Passing clouds.12 mph83%30.04 "HgN/A
3:30 AM72 °FPassing clouds.10 mph83%30.04 "HgN/A
3:00 AM72 °FPartly cloudy.10 mph83%30.04 "HgN/A
2:30 AM72 °FSprinkles. Partly cloudy.12 mph88%30.04 "HgN/A
2:00 AM72 °FPassing clouds.10 mph83%30.07 "HgN/A
1:30 AM72 °FPassing clouds.10 mph83%30.07 "HgN/A
1:00 AM72 °FPassing clouds.12 mph88%30.07 "HgN/A
12:30 AM72 °FSprinkles. Passing clouds.13 mph88%30.07 "HgN/A
12:00 AM72 °FScattered showers. Passing clouds.10 mph83%30.07 "HgN/A
11:30 PM
Tue, May 26
72 °FSprinkles. Partly cloudy.12 mph88%30.09 "Hg3 mi
11:00 PM72 °FSprinkles. Partly cloudy.9 mph83%30.09 "HgN/A
10:30 PM72 °FScattered showers. Passing clouds.12 mph83%30.09 "HgN/A
10:00 PM72 °FSprinkles. Passing clouds.13 mph83%30.09 "HgN/A
9:30 PM72 °FScattered showers. Passing clouds.13 mph83%30.09 "HgN/A
9:00 PM72 °FPassing clouds.10 mph88%30.09 "HgN/A
8:30 PM72 °FSprinkles. Partly cloudy.9 mph88%30.09 "HgN/A
8:00 PM73 °FPassing clouds.10 mph83%30.09 "HgN/A
7:30 PM73 °FSprinkles. Partly cloudy.10 mph83%30.07 "HgN/A
7:00 PM73 °FSprinkles. Partly cloudy.10 mph83%30.07 "HgN/A
6:30 PM73 °FSprinkles. Partly cloudy.9 mph83%30.07 "Hg6 mi
6:00 PM73 °FScattered showers. Partly cloudy.10 mph83%30.07 "HgN/A
5:30 PM73 °FScattered showers. Broken clouds.12 mph83%30.07 "HgN/A
5:00 PM73 °FSprinkles. Broken clouds.6 mph83%30.07 "Hg6 mi
4:30 PM73 °FScattered showers. Broken clouds.7 mph83%30.04 "HgN/A
4:00 PM75 °FScattered showers. Broken clouds.13 mph74%30.04 "HgN/A
3:30 PM79 °FScattered showers. Broken clouds.14 mph65%30.04 "HgN/A
3:00 PM77 °FScattered showers. Broken clouds.10 mph74%30.04 "HgN/A
2:30 PM79 °FScattered showers. Broken clouds.20 mph65%30.04 "HgN/A
2:00 PM79 °FScattered showers. Partly sunny.17 mph65%30.07 "HgN/A
1:30 PM81 °FScattered clouds.20 mph58%30.07 "HgN/A
1:00 PM79 °FScattered clouds.21 mph61%30.07 "HgN/A
12:30 PM81 °FScattered clouds.22 mph66%30.09 "HgN/A
12:00 PM81 °FScattered clouds.22 mph62%30.09 "HgN/A
Weather by CustomWeather, © 2015

See weather overviewHow to use our weather pages